Weather History for KANK - November, 2011

Change the Weather History Date:

Sunday, November 20, 2011

  Actual Average (KGUC) Record (KGUC)
Temperature  
Mean Temperature 36 °F -  
Max Temperature 51 °F 36 °F 55 °F (2007)
Min Temperature 20 °F 11 °F -2 °F (2000)
Degree Days  
Heating Degree Days 30    
Moisture  
Dew Point 17 °F    
Average Humidity 50    
Maximum Humidity 87    
Minimum Humidity 22    
Precipitation  
Precipitation 0.00 in - - ()
Sea Level Pressure  
Sea Level Pressure 30.08 in    
Wind  
Wind Speed 9 mph (SSE)    
Max Wind Speed 17 mph    
Max Gust Speed 30 mph    
Visibility 10 miles    
Events      
Averages and records for this station are not official NWS values.
T = Trace of Precipitation, MM = Missing Value Source: NWS Daily Summary

Daily Weather History Graph

Daily Weather History Graph

Search for Another Location

Airport or City:

Trip Planner

Search our weather history database for the weather conditions in past years. The results will help you decide how hot, cold, wet, or windy it might be!

Date:

Astronomy

Nov. 20, 2011 Rise Set
Actual Time 6:51 AM MST 4:47 PM MST
Civil Twilight 6:22 AM MST 5:16 PM MST
Nautical Twilight 5:50 AM MST 5:48 PM MST
Astronomical Twilight 5:18 AM MST 6:20 PM MST
Moon 1:26 AM MST (11/20) 1:35 PM MST (11/20)
Length of Visible Light 10h 53m
Length of Day
9h 56m
Waning Crescent, 26% of the Moon is Illuminated
Nov 20
Waning Crescent
Nov 24
New
Dec 2
First Quarter
Dec 10
Full
Dec 17
Last Quarter

Hourly Weather History & Observations

Time (MST) Temp. Windchill Dew Point Humidity Pressure Visibility Wind Dir Wind Speed Gust Speed Precip Events Conditions
12:15 AM 28.9 °F 18.2 °F 22.8 °F 78% 30.02 in 10.0 mi ESE 13.8 mph 21.9 mph N/A   Clear
12:35 AM 28.4 °F 19.1 °F 22.5 °F 78% 30.03 in 10.0 mi SE 10.4 mph 19.6 mph N/A   Clear
12:55 AM 27.9 °F 17.8 °F 21.9 °F 78% 30.03 in 10.0 mi SE 11.5 mph 18.4 mph N/A   Clear
1:35 AM 27.0 °F 18.0 °F 20.7 °F 77% 30.03 in 10.0 mi SE 9.2 mph - N/A   Clear
1:55 AM 26.6 °F 16.8 °F 20.3 °F 77% 30.03 in 10.0 mi SE 10.4 mph - N/A   Clear
2:15 AM 26.4 °F 15.5 °F 20.3 °F 78% 30.04 in 10.0 mi SE 12.7 mph - N/A   Clear
2:35 AM 26.1 °F 15.6 °F 20.1 °F 78% 30.03 in 10.0 mi SSE 11.5 mph 17.3 mph N/A   Clear
2:55 AM 25.5 °F 16.2 °F 19.6 °F 78% 30.04 in 10.0 mi SE 9.2 mph 17.3 mph N/A   Clear
3:15 AM 25.2 °F 16.5 °F 19.4 °F 79% 30.04 in 10.0 mi SE 8.1 mph - N/A   Clear
3:55 AM 24.8 °F 14.0 °F 18.9 °F 78% 30.04 in 10.0 mi ESE 11.5 mph 18.4 mph N/A   Clear
4:15 AM 25.2 °F 15.7 °F 18.5 °F 76% 30.04 in 10.0 mi SE 9.2 mph - N/A   Clear
4:35 AM 24.8 °F 16.1 °F 18.5 °F 77% 30.05 in 10.0 mi SSE 8.1 mph - N/A   Clear
4:55 AM 24.6 °F 14.4 °F 18.5 °F 78% 30.06 in 10.0 mi SSE 10.4 mph - N/A   Clear
5:55 AM 21.6 °F - 18.0 °F 86% 30.07 in 10.0 mi Calm Calm - N/A   Clear
6:15 AM 20.7 °F - 17.2 °F 87% 30.07 in 10.0 mi Calm Calm - N/A   Clear
6:35 AM 21.9 °F 17.2 °F 17.8 °F 84% 30.08 in 10.0 mi South 3.5 mph - N/A   Clear
7:15 AM 21.6 °F - 17.6 °F 85% 30.10 in 10.0 mi Calm Calm - N/A   Clear
7:35 AM 23.9 °F - 18.7 °F 80% 30.11 in 10.0 mi Calm Calm - N/A   Clear
7:55 AM 25.3 °F - 18.5 °F 75% 30.11 in 10.0 mi Calm Calm - N/A   Clear
8:15 AM 27.0 °F 21.6 °F 19.4 °F 73% 30.11 in 10.0 mi North 4.6 mph - N/A   Clear
8:35 AM 27.7 °F 21.3 °F 19.8 °F 72% 30.11 in 10.0 mi North 5.8 mph - N/A   Clear
8:55 AM 30.0 °F - 20.3 °F 67% 30.11 in 10.0 mi Calm Calm - N/A   Clear
9:15 AM 32.5 °F - 20.8 °F 62% 30.11 in 10.0 mi Calm Calm - N/A   Clear
9:35 AM 37.0 °F - 21.2 °F 53% 30.11 in 10.0 mi Calm Calm - N/A   Clear
9:55 AM 42.3 °F 37.3 °F 20.1 °F 41% 30.10 in 10.0 mi East 8.1 mph - N/A   Clear
10:15 AM 43.3 °F 40.7 °F 19.9 °F 39% 30.10 in 10.0 mi ENE 4.6 mph - N/A   Clear
10:35 AM 45.9 °F 44.6 °F 18.1 °F 33% 30.09 in 10.0 mi North 3.5 mph 18.4 mph N/A   Clear
11:15 AM 51.1 °F - 13.6 °F 23% 30.07 in 10.0 mi SSW 11.5 mph 20.7 mph N/A   Clear
11:35 AM 51.3 °F - 13.6 °F 22% 30.07 in 10.0 mi SSW 15.0 mph 21.9 mph N/A   Clear
11:55 AM 51.3 °F - 13.6 °F 22% 30.06 in 10.0 mi SSW 17.3 mph 29.9 mph N/A   Clear
12:15 PM 51.3 °F - 15.4 °F 24% 30.04 in 10.0 mi South 16.1 mph 25.3 mph N/A   Clear
12:35 PM 50.7 °F - 15.1 °F 24% 30.04 in 10.0 mi South 16.1 mph 26.5 mph N/A   Clear
12:55 PM 48.7 °F - 15.8 °F 27% 30.05 in 10.0 mi South 12.7 mph 24.2 mph N/A   Scattered Clouds
1:15 PM 47.8 °F - 17.1 °F 29% 30.05 in 10.0 mi South 12.7 mph 23.0 mph N/A   Mostly Cloudy
1:55 PM 48.9 °F - 17.4 °F 29% 30.05 in 10.0 mi South 15.0 mph 23.0 mph N/A   Mostly Cloudy
2:15 PM 51.3 °F - 15.8 °F 25% 30.05 in 10.0 mi South 15.0 mph 25.3 mph N/A   Mostly Cloudy
2:55 PM 51.3 °F - 15.3 °F 24% 30.05 in 10.0 mi South 11.5 mph 25.3 mph N/A   Scattered Clouds
3:15 PM 51.1 °F - 14.9 °F 24% 30.06 in 10.0 mi South 15.0 mph 24.2 mph N/A   Clear
3:35 PM 50.9 °F - 14.2 °F 23% 30.06 in 10.0 mi SSE 9.2 mph - N/A   Clear
3:55 PM 49.5 °F - 11.8 °F 22% 30.07 in 10.0 mi SSW 5.8 mph - N/A   Clear
4:15 PM 47.3 °F - 11.8 °F 24% 30.09 in 10.0 mi WSW 4.6 mph - N/A   Clear
4:35 PM 43.2 °F 40.5 °F 12.2 °F 28% 30.09 in 10.0 mi SSW 4.6 mph - N/A   Clear
4:55 PM 41.7 °F 37.3 °F 12.2 °F 30% 30.09 in 10.0 mi SE 6.9 mph - N/A   Clear
5:15 PM 45.1 °F 41.4 °F 14.0 °F 29% 30.10 in 10.0 mi South 6.9 mph - N/A   Clear
5:35 PM 44.8 °F 41.0 °F 14.4 °F 29% 30.10 in 10.0 mi South 6.9 mph - N/A   Clear
5:55 PM 43.7 °F 40.3 °F 14.0 °F 30% 30.12 in 10.0 mi SSW 5.8 mph - N/A   Clear
6:15 PM 43.5 °F 38.9 °F 13.5 °F 30% 30.12 in 10.0 mi South 8.1 mph - N/A   Clear
6:35 PM 42.3 °F 38.6 °F 13.5 °F 31% 30.14 in 10.0 mi WSW 5.8 mph - N/A   Clear
6:55 PM 43.5 °F 37.1 °F 13.6 °F 30% 30.14 in 10.0 mi South 12.7 mph 17.3 mph N/A   Clear
7:15 PM 44.1 °F 39.5 °F 13.8 °F 29% 30.15 in 10.0 mi SSW 8.1 mph 18.4 mph N/A   Clear
7:35 PM 43.3 °F 38.1 °F 14.0 °F 31% 30.15 in 10.0 mi South 9.2 mph - N/A   Clear
7:55 PM 43.2 °F 37.0 °F 14.5 °F 31% 30.16 in 10.0 mi South 11.5 mph - N/A   Clear
8:15 PM 43.2 °F 37.4 °F 14.9 °F 32% 30.17 in 10.0 mi South 10.4 mph - N/A   Clear
8:55 PM 42.8 °F 37.0 °F 15.4 °F 33% 30.17 in 10.0 mi SSW 10.4 mph - N/A   Clear
9:15 PM 41.0 °F 35.2 °F 16.3 °F 37% 30.17 in 10.0 mi SW 9.2 mph - N/A   Clear
9:35 PM 38.3 °F 31.4 °F 17.6 °F 43% 30.17 in 10.0 mi SW 10.4 mph - N/A   Clear
9:55 PM 37.9 °F 31.5 °F 18.0 °F 45% 30.17 in 10.0 mi WSW 9.2 mph - N/A   Clear
10:15 PM 37.8 °F 31.8 °F 18.5 °F 46% 30.17 in 10.0 mi WSW 8.1 mph - N/A   Clear
10:35 PM 37.6 °F 31.6 °F 19.0 °F 47% 30.17 in 10.0 mi WSW 8.1 mph - N/A   Clear
11:15 PM 38.3 °F 31.9 °F 19.4 °F 47% 30.17 in 10.0 mi SW 9.2 mph - N/A   Clear
11:55 PM 41.9 °F 35.0 °F 19.4 °F 41% 30.16 in 10.0 mi SSW 12.7 mph 18.4 mph N/A   Clear